Time,TemperatureF,DewpointF,PressureIn,WindDirection,WindDirectionDegrees,WindSpeedMPH,WindSpeedGustMPH,Humidity,HourlyPrecipIn,Conditions,Clouds,dailyrainin,SolarRadiationWatts/m^2,SoftwareType,DateUTC
2013-01-17 00:15:00,34.9,33.0,29.90,SW,236,1.0,4.0,93,0.00,,,0.00,0,weatherlink.com 1.10,2013-01-17 05:15:00,
2013-01-17 00:30:00,34.9,33.0,29.91,SW,234,3.0,8.0,93,0.00,,,0.00,0,weatherlink.com 1.10,2013-01-17 05:30:00,
2013-01-17 00:46:00,35.0,33.0,29.91,WSW,241,5.0,9.0,92,0.00,,,0.00,0,weatherlink.com 1.10,2013-01-17 05:46:00,
2013-01-17 01:01:00,34.9,33.0,29.91,West,264,3.0,10.0,92,0.00,,,0.00,0,weatherlink.com 1.10,2013-01-17 06:01:00,
2013-01-17 01:16:00,34.9,33.0,29.92,West,265,3.0,9.0,92,0.00,,,0.00,0,weatherlink.com 1.10,2013-01-17 06:16:00,
2013-01-17 01:31:00,35.0,33.0,29.93,WSW,257,6.0,8.0,92,0.00,,,0.00,0,weatherlink.com 1.10,2013-01-17 06:31:00,
2013-01-17 01:46:00,35.0,33.0,29.93,WSW,255,1.0,7.0,92,0.00,,,0.00,0,weatherlink.com 1.10,2013-01-17 06:46:00,
2013-01-17 02:01:00,34.8,33.0,29.93,SW,229,4.0,7.0,92,0.00,,,0.00,0,weatherlink.com 1.10,2013-01-17 07:01:00,
2013-01-17 02:16:00,34.7,33.0,29.93,West,270,3.0,8.0,92,0.00,,,0.00,0,weatherlink.com 1.10,2013-01-17 07:16:00,
2013-01-17 02:31:00,34.5,33.0,29.92,WSW,247,2.0,6.0,93,0.00,,,0.00,0,weatherlink.com 1.10,2013-01-17 07:31:00,
2013-01-17 02:46:00,34.3,33.0,29.93,SW,232,3.0,6.0,93,0.00,,,0.00,0,weatherlink.com 1.10,2013-01-17 07:46:00,
2013-01-17 03:01:00,34.3,33.0,29.92,WSW,244,5.0,6.0,93,0.00,,,0.00,0,weatherlink.com 1.10,2013-01-17 08:01:00,
2013-01-17 03:16:00,34.1,32.0,29.91,SSW,213,1.0,5.0,93,0.00,,,0.00,0,weatherlink.com 1.10,2013-01-17 08:16:00,
2013-01-17 03:31:00,33.8,32.0,29.91,WSW,249,3.0,4.0,93,0.00,,,0.00,0,weatherlink.com 1.10,2013-01-17 08:31:00,
2013-01-17 03:46:00,33.6,32.0,29.92,West,259,5.0,5.0,93,0.00,,,0.00,0,weatherlink.com 1.10,2013-01-17 08:46:00,
2013-01-17 04:01:00,33.5,32.0,29.92,WSW,246,5.0,7.0,94,0.00,,,0.00,0,weatherlink.com 1.10,2013-01-17 09:01:00,
2013-01-17 04:16:00,33.6,32.0,29.91,SW,232,3.0,7.0,93,0.00,,,0.00,0,weatherlink.com 1.10,2013-01-17 09:16:00,
2013-01-17 04:31:00,33.6,32.0,29.91,WSW,242,7.0,7.0,93,0.00,,,0.00,0,weatherlink.com 1.10,2013-01-17 09:31:00,
2013-01-17 04:46:00,33.6,32.0,29.91,SW,228,2.0,7.0,92,0.00,,,0.00,0,weatherlink.com 1.10,2013-01-17 09:46:00,
2013-01-17 05:01:00,33.5,32.0,29.91,WSW,244,5.0,7.0,92,0.00,,,0.00,0,weatherlink.com 1.10,2013-01-17 10:01:00,
2013-01-17 05:16:00,33.5,32.0,29.92,SW,218,5.0,9.0,92,0.00,,,0.00,0,weatherlink.com 1.10,2013-01-17 10:16:00,
2013-01-17 05:31:00,33.7,31.0,29.92,WSW,257,3.0,7.0,91,0.00,,,0.00,0,weatherlink.com 1.10,2013-01-17 10:31:00,
2013-01-17 05:46:00,33.5,31.0,29.93,WSW,254,2.0,7.0,91,0.00,,,0.00,0,weatherlink.com 1.10,2013-01-17 10:46:00,
2013-01-17 06:01:00,33.3,31.0,29.94,SW,234,5.0,7.0,91,0.00,,,0.00,0,weatherlink.com 1.10,2013-01-17 11:01:00,
2013-01-17 06:16:00,33.3,31.0,29.94,WSW,243,4.0,6.0,91,0.00,,,0.00,0,weatherlink.com 1.10,2013-01-17 11:16:00,
2013-01-17 06:31:00,33.2,31.0,29.94,WSW,244,5.0,7.0,91,0.00,,,0.00,0,weatherlink.com 1.10,2013-01-17 11:31:00,
2013-01-17 06:46:00,33.1,31.0,29.95,SW,231,4.0,6.0,91,0.00,,,0.00,0,weatherlink.com 1.10,2013-01-17 11:46:00,
2013-01-17 07:01:00,33.1,31.0,29.96,WSW,257,9.0,9.0,91,0.00,,,0.00,0,weatherlink.com 1.10,2013-01-17 12:01:00,
2013-01-17 07:16:00,33.1,31.0,29.96,West,275,5.0,8.0,90,0.00,,,0.00,7,weatherlink.com 1.10,2013-01-17 12:16:00,
2013-01-17 07:31:00,33.2,31.0,29.98,West,261,5.0,7.0,90,0.00,,,0.00,18,weatherlink.com 1.10,2013-01-17 12:31:00,
2013-01-17 07:46:00,33.3,30.0,29.99,West,278,6.0,11.0,89,0.00,,,0.00,49,weatherlink.com 1.10,2013-01-17 12:46:00,
2013-01-17 08:01:00,33.4,30.0,30.00,West,259,4.0,9.0,88,0.00,,,0.00,25,weatherlink.com 1.10,2013-01-17 13:01:00,
2013-01-17 08:16:00,33.8,30.0,30.00,West,272,5.0,7.0,87,0.00,,,0.00,121,weatherlink.com 1.10,2013-01-17 13:16:00,
2013-01-17 08:31:00,34.6,31.0,30.00,West,265,5.0,7.0,85,0.00,,,0.00,158,weatherlink.com 1.10,2013-01-17 13:31:00,
2013-01-17 08:47:00,35.3,30.0,30.01,WSW,248,2.0,9.0,82,0.00,,,0.00,153,weatherlink.com 1.10,2013-01-17 13:47:00,
2013-01-17 09:02:00,35.8,31.0,30.02,WSW,258,5.0,7.0,81,0.00,,,0.00,190,weatherlink.com 1.10,2013-01-17 14:02:00,
2013-01-17 09:17:00,36.1,31.0,30.03,WSW,257,5.0,8.0,80,0.00,,,0.00,109,weatherlink.com 1.10,2013-01-17 14:17:00,
2013-01-17 09:32:00,36.3,31.0,30.03,WSW,247,6.0,8.0,80,0.00,,,0.00,267,weatherlink.com 1.10,2013-01-17 14:32:00,
2013-01-17 09:47:00,36.9,31.0,30.03,WSW,250,5.0,10.0,79,0.00,,,0.00,299,weatherlink.com 1.10,2013-01-17 14:47:00,
2013-01-17 10:02:00,37.1,31.0,30.03,West,265,3.0,9.0,78,0.00,,,0.00,294,weatherlink.com 1.10,2013-01-17 15:02:00,
2013-01-17 10:17:00,37.8,32.0,30.03,WSW,246,5.0,11.0,78,0.00,,,0.00,418,weatherlink.com 1.10,2013-01-17 15:17:00,
2013-01-17 10:32:00,38.5,32.0,30.02,South,175,3.0,8.0,77,0.00,,,0.00,471,weatherlink.com 1.10,2013-01-17 15:32:00,
2013-01-17 10:47:00,39.0,32.0,30.03,WSW,239,5.0,9.0,75,0.00,,,0.00,450,weatherlink.com 1.10,2013-01-17 15:47:00,
2013-01-17 11:02:00,39.3,31.0,30.03,WSW,250,5.0,12.0,73,0.00,,,0.00,554,weatherlink.com 1.10,2013-01-17 16:02:00,
2013-01-17 11:17:00,39.7,32.0,30.02,WNW,302,6.0,13.0,73,0.00,,,0.00,223,weatherlink.com 1.10,2013-01-17 16:17:00,
2013-01-17 11:32:00,39.8,32.0,30.02,West,271,12.0,14.0,73,0.00,,,0.00,179,weatherlink.com 1.10,2013-01-17 16:32:00,
2013-01-17 11:47:00,39.9,32.0,30.02,NNW,338,5.0,13.0,73,0.00,,,0.00,700,weatherlink.com 1.10,2013-01-17 16:47:00,
2013-01-17 12:02:00,40.0,32.0,30.02,NW,315,8.0,16.0,72,0.00,,,0.00,199,weatherlink.com 1.10,2013-01-17 17:02:00,
2013-01-17 12:17:00,40.8,33.0,30.01,West,275,7.0,13.0,73,0.00,,,0.00,322,weatherlink.com 1.10,2013-01-17 17:17:00,
2013-01-17 12:32:00,41.1,32.0,30.02,NW,309,9.0,13.0,71,0.00,,,0.00,239,weatherlink.com 1.10,2013-01-17 17:32:00,
2013-01-17 12:48:00,41.8,32.0,30.03,WNW,288,4.0,13.0,67,0.00,,,0.00,257,weatherlink.com 1.10,2013-01-17 17:48:00,
2013-01-17 13:02:00,41.9,32.0,30.02,WNW,300,6.0,12.0,69,0.00,,,0.00,373,weatherlink.com 1.10,2013-01-17 18:02:00,
2013-01-17 13:17:00,41.8,32.0,30.02,WNW,283,9.0,15.0,67,0.00,,,0.00,288,weatherlink.com 1.10,2013-01-17 18:17:00,
2013-01-17 13:32:00,42.0,31.0,30.03,WNW,294,6.0,12.0,66,0.00,,,0.00,232,weatherlink.com 1.10,2013-01-17 18:32:00,
2013-01-17 13:47:00,42.1,30.0,30.04,NW,325,7.0,18.0,62,0.00,,,0.00,214,weatherlink.com 1.10,2013-01-17 18:47:00,
2013-01-17 14:02:00,42.4,30.0,30.04,NW,310,4.0,13.0,61,0.00,,,0.00,244,weatherlink.com 1.10,2013-01-17 19:02:00,
2013-01-17 14:17:00,42.5,29.0,30.04,WNW,302,4.0,14.0,60,0.00,,,0.00,167,weatherlink.com 1.10,2013-01-17 19:17:00,
2013-01-17 14:32:00,42.4,28.0,30.05,WSW,254,9.0,13.0,58,0.00,,,0.00,214,weatherlink.com 1.10,2013-01-17 19:32:00,
2013-01-17 14:47:00,42.7,28.0,30.06,WNW,284,6.0,13.0,56,0.00,,,0.00,302,weatherlink.com 1.10,2013-01-17 19:47:00,
2013-01-17 15:02:00,42.6,27.0,30.06,NW,308,4.0,16.0,55,0.00,,,0.00,183,weatherlink.com 1.10,2013-01-17 20:02:00,
2013-01-17 15:17:00,42.5,27.0,30.07,NNW,328,6.0,14.0,55,0.00,,,0.00,83,weatherlink.com 1.10,2013-01-17 20:17:00,
2013-01-17 15:32:00,42.3,28.0,30.07,West,276,6.0,13.0,57,0.00,,,0.00,60,weatherlink.com 1.10,2013-01-17 20:32:00,
2013-01-17 15:47:00,41.9,27.0,30.07,NW,314,5.0,12.0,55,0.00,,,0.00,49,weatherlink.com 1.10,2013-01-17 20:47:00,
2013-01-17 16:02:00,41.7,27.0,30.07,West,276,4.0,12.0,56,0.00,,,0.00,30,weatherlink.com 1.10,2013-01-17 21:02:00,
2013-01-17 16:17:00,41.4,27.0,30.08,NW,313,5.0,10.0,56,0.00,,,0.00,14,weatherlink.com 1.10,2013-01-17 21:17:00,
2013-01-17 16:32:00,41.0,27.0,30.08,WNW,288,5.0,7.0,58,0.00,,,0.00,5,weatherlink.com 1.10,2013-01-17 21:32:00,
2013-01-17 16:48:00,40.3,28.0,30.09,North,5,9.0,10.0,63,0.00,,,0.00,0,weatherlink.com 1.10,2013-01-17 21:48:00,
2013-01-17 17:03:00,39.1,29.0,30.11,NW,309,3.0,8.0,67,0.00,,,0.00,0,weatherlink.com 1.10,2013-01-17 22:03:00,
2013-01-17 17:18:00,38.7,29.0,30.10,North,355,5.0,8.0,67,0.00,,,0.00,0,weatherlink.com 1.10,2013-01-17 22:18:00,
2013-01-17 17:33:00,38.5,28.0,30.12,NW,315,2.0,6.0,67,0.00,,,0.00,0,weatherlink.com 1.10,2013-01-17 22:33:00,
2013-01-17 17:48:00,38.3,28.0,30.11,North,5,4.0,7.0,67,0.00,,,0.00,0,weatherlink.com 1.10,2013-01-17 22:48:00,
2013-01-17 18:03:00,38.2,28.0,30.12,NW,310,3.0,5.0,67,0.00,,,0.00,0,weatherlink.com 1.10,2013-01-17 23:03:00,
2013-01-17 18:18:00,38.0,28.0,30.12,NNE,32,3.0,8.0,67,0.00,,,0.00,0,weatherlink.com 1.10,2013-01-17 23:18:00,
2013-01-17 18:33:00,37.5,26.0,30.14,NW,324,4.0,8.0,63,0.00,,,0.00,0,weatherlink.com 1.10,2013-01-17 23:33:00,
2013-01-17 18:48:00,37.0,25.0,30.16,North,355,4.0,8.0,61,0.00,,,0.00,0,weatherlink.com 1.10,2013-01-17 23:48:00,
2013-01-17 19:03:00,36.4,24.0,30.14,NNW,346,5.0,9.0,61,0.00,,,0.00,0,weatherlink.com 1.10,2013-01-18 00:03:00,
2013-01-17 19:18:00,35.9,23.0,30.14,North,350,2.0,8.0,59,0.00,,,0.00,0,weatherlink.com 1.10,2013-01-18 00:18:00,
2013-01-17 19:33:00,35.5,22.0,30.16,NNW,336,4.0,8.0,59,0.00,,,0.00,0,weatherlink.com 1.10,2013-01-18 00:33:00,
2013-01-17 19:48:00,35.3,23.0,30.16,NE,56,3.0,9.0,60,0.00,,,0.00,0,weatherlink.com 1.10,2013-01-18 00:48:00,
2013-01-17 20:03:00,34.8,21.0,30.15,North,11,5.0,10.0,58,0.00,,,0.00,0,weatherlink.com 1.10,2013-01-18 01:03:00,
2013-01-17 20:18:00,34.3,21.0,30.15,North,11,3.0,11.0,58,0.00,,,0.00,0,weatherlink.com 1.10,2013-01-18 01:18:00,
2013-01-17 20:33:00,33.8,20.0,30.16,North,5,4.0,11.0,57,0.00,,,0.00,0,weatherlink.com 1.10,2013-01-18 01:33:00,
2013-01-17 20:48:00,33.5,19.0,30.14,North,5,6.0,12.0,56,0.00,,,0.00,0,weatherlink.com 1.10,2013-01-18 01:48:00,
2013-01-17 21:03:00,33.3,20.0,30.14,North,355,6.0,9.0,58,0.00,,,0.00,0,weatherlink.com 1.10,2013-01-18 02:03:00,
2013-01-17 21:18:00,32.9,19.0,30.15,North,360,7.0,10.0,57,0.00,,,0.00,0,weatherlink.com 1.10,2013-01-18 02:18:00,
2013-01-17 21:33:00,32.8,20.0,30.15,NNW,327,1.0,9.0,59,0.00,,,0.00,0,weatherlink.com 1.10,2013-01-18 02:33:00,
2013-01-17 21:48:00,32.5,19.0,30.15,WNW,291,6.0,10.0,57,0.00,,,0.00,0,weatherlink.com 1.10,2013-01-18 02:48:00,
2013-01-17 22:03:00,32.3,18.0,30.13,WNW,299,3.0,12.0,56,0.00,,,0.00,0,weatherlink.com 1.10,2013-01-18 03:03:00,
2013-01-17 22:19:00,32.2,18.0,30.14,NNE,14,8.0,9.0,56,0.00,,,0.00,0,weatherlink.com 1.10,2013-01-18 03:19:00,
2013-01-17 22:33:00,32.0,17.0,30.15,NE,34,4.0,11.0,54,0.00,,,0.00,0,weatherlink.com 1.10,2013-01-18 03:33:00,
2013-01-17 22:48:00,31.9,17.0,30.16,NNW,330,7.0,10.0,54,0.00,,,0.00,0,weatherlink.com 1.10,2013-01-18 03:48:00,
2013-01-17 23:03:00,31.7,17.0,30.15,NNW,341,5.0,10.0,55,0.00,,,0.00,0,weatherlink.com 1.10,2013-01-18 04:03:00,
2013-01-17 23:18:00,31.5,17.0,30.12,NW,321,4.0,10.0,55,0.00,,,0.00,0,weatherlink.com 1.10,2013-01-18 04:18:00,
2013-01-17 23:33:00,31.0,16.0,30.11,NNW,346,4.0,12.0,53,0.00,,,0.00,0,weatherlink.com 1.10,2013-01-18 04:33:00,
2013-01-17 23:48:00,30.6,14.0,30.13,NE,55,5.0,13.0,50,0.00,,,0.00,0,weatherlink.com 1.10,2013-01-18 04:48:00,